Location: Emory University Observatory
(33.7903°N, 84.3267°W)
Time: 23:31:02
(UTC-05:00)

Tiangong 2 - Pass Details

Date: 15 October 2017
Orbit: 386 x 390 km, 42.8° (Epoch: 13 December)

Event Time Altitude Azimuth Distance (km) Brightness Sun altitude
Exits shadow 05:37:25 12° 32° (NNE) 1,323 4.2 -26.7°
Drops below altitude 10° 05:37:48 10° 37° (NE) 1,421 4.5 -26.6°
Sets 05:40:24 0° 60° (ENE) 2,278 6.0 -26.1°
